SCP
0 0 0 0 0 0 0 0 0 0 0 0 0 1 1 1 1 2 2 3 3 3 3 4 4 3 2 3 3 3 3 4 4 4 4 3 2 2 1 1 1 1 1 1
0 0 0 0 0 0 0 0 0 0 0 0 0 1 1 1 1 1 2 3 3 3 3 4 3 3 3 3 3 3 3 4 4 4 4 4 3 2 2 1 1 1 1 1
0 0 0 -0 0 0 0 0 0 0 0 0 0 1 1 1 1 1 2 2 3 3 3 3 3 3 3 4 4 3 4 4 5 4 4 4 3 2 2 1 1 1 1 1
0 0 0 0 0 0 0 0 0 0 0 0 0 0 1 1 1 1 1 2 3 3 3 3 3 4 4 4 4 4 4 4 5 4 3 3 3 3 2 2 1 1 1 1
0 0 0 0 0 0 0 0 0 0 0 0 0 0 1 1 1 1 1 2 2 3 2 2 3 4 4 4 4 4 3 4 4 3 3 3 3 3 3 3 2 1 1 1
0 0 0 0 0 0 0 0 0 0 0 0 0 0 0 1 1 1 1 1 2 2 2 2 2 3 4 5 5 3 3 3 3 3 3 3 4 4 4 3 2 2 1 1
0 0 0 0 0 0 0 0 0 0 0 0 0 0 0 0 0 1 1 1 1 2 2 2 2 2 4 5 4 3 2 2 2 3 3 3 3 4 3 3 2 2 1 1
0 0 0 0 0 0 0 0 0 0 0 0 0 0 0 0 1 1 1 1 1 2 2 2 2 2 3 4 3 2 2 2 2 2 2 2 3 3 3 3 2 2 1 1
0 0 0 0 0 0 0 0 0 0 0 0 0 0 0 0 1 1 1 1 1 1 2 2 2 2 2 2 2 2 2 3 3 2 2 2 2 2 3 3 3 2 2 1
0 0 0 0 0 0 0 0 0 0 0 0 0 0 0 1 1 1 1 1 1 2 2 2 3 3 3 2 2 2 2 3 3 2 2 2 2 2 2 3 3 3 2 2
0 0 0 0 0 0 0 0 0 0 0 0 0 0 0 1 1 1 1 2 2 2 2 2 2 3 3 2 2 2 2 2 2 2 2 2 1 1 1 2 2 3 3 2
0 0 0 0 0 0 0 0 0 0 0 0 0 0 1 1 1 1 1 2 2 2 2 2 2 2 2 2 2 2 2 2 2 2 2 2 1 1 1 1 2 2 2 2
0 0 0 0 0 0 0 0 0 0 0 0 0 0 1 1 1 1 1 1 1 1 1 1 2 2 1 2 2 2 1 1 1 1 2 2 1 1 1 1 1 2 2 2
1 0 0 0 0 0 0 0 0 0 0 0 0 1 1 1 1 1 1 1 1 1 1 1 2 2 2 2 2 2 1 1 1 1 2 2 1 1 1 1 1 2 2 2
1 1 0 0 0 0 0 0 0 0 0 0 0 1 2 2 2 2 2 2 2 2 2 2 2 2 3 3 2 2 1 1 1 2 2 2 2 1 1 2 2 2 2 3
1 1 1 0 0 0 0 0 0 0 0 0 1 2 2 2 2 2 2 2 2 2 2 2 2 3 3 3 2 2 1 1 1 2 2 2 2 2 2 2 3 3 4 5
1 1 1 0 0 0 0 0 0 0 1 1 1 2 3 3 2 2 2 2 2 2 2 2 2 2 3 3 3 2 2 2 2 2 2 3 3 3 4 4 4 5 6 6
1 1 1 0 0 0 0 1 1 1 1 1 2 2 3 3 2 2 2 2 2 2 2 2 2 2 2 3 3 3 3 3 3 2 2 3 4 5 5 5 6 6 5 5
1 1 1 0 0 0 1 1 1 1 1 2 2 2 2 2 2 2 2 2 2 2 2 2 2 2 2 3 3 3 3 3 3 3 3 3 4 5 5 5 5 4 4 3
1 1 0 0 0 0 1 1 1 1 2 2 2 2 2 2 2 2 2 2 2 2 2 2 2 2 3 3 3 3 3 3 3 3 3 3 4 4 4 4 4 3 2 2
0 0 0 0 0 0 1 1 1 1 2 2 2 2 2 2 2 2 2 2 2 1 2 2 2 3 3 4 4 4 4 3 3 3 3 3 3 4 4 3 3 3 2 2
0 0 0 0 0 1 1 1 1 1 1 2 1 1 1 2 2 2 2 2 2 2 2 2 3 4 4 4 5 5 4 4 4 4 3 3 3 3 3 3 3 3 2 2
0 0 0 0 0 0 1 1 1 1 1 1 1 1 1 1 1 1 1 1 1 2 2 3 3 4 4 4 4 4 4 4 3 3 2 3 3 3 3 3 3 2 2 2
0 0 0 0 0 0 0 0 1 1 1 1 1 1 1 1 1 1 1 1 1 2 2 2 3 3 2 2 2 2 2 2 2 2 2 2 2 2 2 2 2 2 2 2
0 0 0 0 0 0 0 0 0 0 1 1 1 1 1 1 1 1 1 0 1 1 1 1 1 1 1 0 1 1 1 1 2 2 2 2 2 2 1 1 1 1 1 1
0 0 0 0 0 0 0 0 0 0 0 0 1 0 0 1 1 1 0 0 0 0 1 1 1 0 0 0 0 1 1 2 2 2 2 2 2 1 0 0 0 0 0 0
Wind_Speed
11 12 13 12 11 9 7 8 9 5 3 6 7 7 3 4 6 7 7 7 8 9 9 9 10 10 10 11 11 13 13 13 11 9 9 9 8 7 6 6 7 7 7 6
10 16 14 9 8 9 10 11 9 5 1 6 7 8 4 4 6 6 7 7 8 8 9 9 10 10 11 11 12 14 15 14 13 10 8 8 8 7 6 6 6 7 7 6
16 6 8 10 11 12 12 11 8 7 6 6 8 8 5 5 5 6 7 7 7 8 9 10 11 11 11 12 13 12 15 15 14 13 9 8 7 6 6 7 6 7 7 7
14 10 8 12 13 12 11 8 8 9 10 6 4 9 2 4 5 7 7 7 8 8 8 9 10 11 11 11 11 12 13 14 14 13 11 13 10 9 8 7 6 7 7 7
10 9 11 13 12 12 9 5 7 9 9 10 7 9 3 3 4 5 6 7 7 7 7 8 10 10 11 11 10 11 12 13 13 13 13 12 10 8 7 7 8 7 7 7
9 6 8 9 8 9 7 7 8 9 10 11 5 8 5 0 1 2 4 6 6 7 7 8 9 10 10 11 11 11 12 13 13 13 13 12 11 10 10 9 8 7 6 6
13 13 11 10 10 9 11 10 8 9 8 7 1 6 4 3 1 1 3 5 6 7 7 8 9 10 11 12 12 12 12 12 12 13 12 12 11 11 11 10 9 8 7 7
11 11 12 11 13 9 11 13 10 8 7 5 4 6 2 2 2 2 4 5 6 7 7 8 9 10 11 12 12 12 13 13 13 13 12 11 11 8 8 9 8 8 7 7
8 6 6 6 8 11 10 11 11 11 11 10 6 4 3 3 4 5 6 7 7 7 8 8 9 10 11 12 12 12 13 13 13 13 12 11 11 10 9 9 9 7 7 7
7 6 6 6 7 9 10 8 7 10 10 10 8 6 3 2 3 6 7 7 7 8 8 9 9 10 10 11 11 12 12 12 12 12 11 10 10 11 10 9 10 8 8 8
9 8 7 8 10 9 9 10 10 9 9 10 10 4 3 1 2 5 6 7 8 8 8 8 8 9 10 10 11 11 11 11 11 11 11 10 11 11 10 9 10 9 9 9
6 7 9 8 3 4 9 11 11 10 10 10 11 5 4 2 2 4 6 7 7 7 8 8 9 10 10 10 10 11 11 11 11 11 10 10 10 10 10 10 10 10 10 10
3 6 9 9 9 8 9 10 11 12 11 10 12 5 6 3 2 4 5 7 8 8 8 8 9 9 10 10 9 10 10 10 10 10 11 10 10 10 10 10 9 10 10 10
4 7 10 11 6 4 8 9 10 12 12 12 13 10 3 3 3 4 5 7 8 8 8 9 9 9 8 8 9 9 9 10 10 10 11 10 10 10 10 9 9 9 9 10
5 9 10 11 9 10 12 12 12 14 15 15 13 11 6 2 1 2 5 7 8 8 8 9 9 8 8 8 8 8 9 9 10 10 10 9 9 8 9 8 8 9 9 10
3 7 9 12 12 13 16 16 17 17 17 17 16 13 4 1 2 3 4 7 8 8 8 8 8 8 8 8 8 8 8 8 8 8 8 8 8 8 8 8 8 8 8 8
5 6 9 12 11 12 17 16 17 17 17 16 16 10 4 3 2 2 4 5 6 7 7 7 8 7 7 7 7 8 8 7 8 7 7 7 7 7 7 7 7 7 7 7
6 8 7 10 9 15 8 4 8 12 14 13 11 6 3 3 3 3 2 4 5 6 6 6 6 6 6 7 7 7 7 7 7 7 6 6 7 7 6 6 6 6 5 5
6 7 7 8 11 12 8 4 6 9 11 8 7 4 5 7 6 4 4 4 5 5 5 5 5 6 6 6 7 8 7 7 6 6 5 5 5 6 6 5 5 4 4 3
6 7 8 8 10 10 3 3 4 7 9 3 5 7 8 8 5 3 6 6 7 7 6 6 6 7 7 7 8 8 7 7 6 5 5 4 4 5 5 4 3 3 3 3
7 8 10 11 11 8 3 4 4 8 2 2 3 5 6 3 4 8 8 8 9 9 9 8 8 8 8 8 9 9 9 8 6 6 6 6 5 5 5 4 3 3 3 3
7 6 7 7 9 5 6 4 4 5 5 2 1 3 6 9 11 11 10 10 10 11 11 11 10 10 9 9 10 11 10 8 8 9 9 8 7 6 6 6 5 4 3 3
5 4 5 5 4 4 5 5 6 6 4 1 3 6 9 11 11 12 11 11 11 12 12 11 12 12 11 11 11 12 10 9 9 10 10 9 9 8 7 6 5 4 3 3
2 3 6 6 5 4 5 5 5 4 1 2 5 8 11 13 14 13 11 11 11 12 11 11 12 13 12 12 12 11 10 9 10 10 9 8 8 8 8 6 5 5 5 4
4 4 5 6 6 5 4 5 4 4 6 8 8 9 12 15 15 14 13 12 11 11 11 11 12 13 13 12 12 11 9 9 10 9 8 7 8 8 7 8 7 7 8 7
2 4 4 4 5 3 4 5 5 7 8 10 11 12 13 14 15 15 13 12 11 11 11 12 13 13 12 12 11 10 9 8 8 7 7 6 6 5 5 6 7 11 8 9
Wind_Direction
195 217 222 222 233 269 277 273 272 282 317 286 282 289 269 213 224 222 211 202 198 202 192 184 186 187 183 184 181 180 181 178 177 175 175 172 173 172 172 175 171 177 180 177
198 225 231 236 238 249 252 259 262 260 285 288 294 286 260 224 226 226 218 208 205 200 190 186 185 185 186 185 184 184 184 181 181 180 176 175 170 171 169 172 170 181 183 182
218 217 213 220 225 235 243 252 270 291 296 243 279 261 201 192 207 212 217 215 209 203 198 192 191 190 188 187 187 187 184 180 182 176 169 164 160 165 168 173 175 182 184 187
232 228 216 224 230 235 242 247 268 277 279 277 287 292 230 183 205 206 206 206 206 201 200 193 188 188 189 189 188 185 181 180 180 175 177 174 176 175 177 177 174 177 184 187
214 215 218 228 232 233 250 265 263 270 273 277 251 275 284 182 234 207 197 202 203 197 193 191 187 186 186 184 182 180 176 178 177 180 182 182 180 176 170 173 172 182 182 192
234 208 231 237 232 231 233 232 240 247 254 257 271 281 289 293 294 184 172 185 191 190 187 184 182 180 181 180 178 175 176 179 177 180 183 185 180 173 171 177 176 185 184 191
223 224 224 233 232 206 218 233 237 233 233 252 202 269 296 16 24 199 169 169 175 179 179 176 176 177 178 177 177 177 176 178 177 179 182 185 182 177 179 182 185 190 191 194
215 216 206 214 230 229 217 237 251 264 269 270 199 259 320 69 96 151 160 157 166 172 173 174 174 176 177 177 177 178 180 179 178 180 183 185 184 184 186 191 191 194 201 200
223 209 162 207 223 236 222 232 256 267 270 274 267 258 230 173 169 165 164 162 161 166 169 171 172 175 174 176 178 177 177 177 179 182 182 185 189 194 192 190 199 201 204 199
244 239 199 184 201 217 254 252 237 252 262 268 266 260 270 195 179 164 168 166 158 160 165 169 171 171 170 173 174 176 178 178 181 182 185 187 192 197 196 196 202 206 202 202
238 244 212 202 219 215 205 223 239 253 262 271 277 280 54 19 191 178 169 169 165 161 162 164 168 167 165 166 169 175 178 180 185 187 188 188 192 195 196 200 204 206 202 200
220 246 247 230 230 284 250 245 237 247 251 254 273 282 79 60 162 171 163 159 161 158 159 161 163 163 166 169 169 173 173 178 182 182 183 188 191 193 197 201 205 204 202 202
192 235 239 219 205 203 231 238 244 249 258 255 260 260 118 128 146 154 159 158 162 164 162 162 162 165 170 171 170 169 171 174 176 175 180 183 188 192 199 201 202 202 203 205
264 248 258 266 283 241 232 232 238 245 248 253 254 265 218 187 181 161 163 163 163 163 166 165 161 163 167 169 169 170 173 174 175 174 180 183 189 192 194 197 199 201 203 205
264 253 257 270 280 272 264 257 247 247 257 266 270 269 271 227 197 164 165 164 161 159 162 164 162 159 161 162 166 171 173 175 175 176 180 184 186 189 192 194 197 200 205 209
264 273 268 262 261 264 264 259 255 253 255 258 264 268 275 184 150 165 168 166 165 161 161 162 160 158 162 164 167 167 169 171 173 177 180 181 182 184 188 190 193 197 205 212
247 257 266 266 267 268 256 253 254 253 253 256 257 259 209 187 164 155 157 164 166 158 157 157 159 161 164 167 169 169 168 166 168 174 177 176 180 182 187 190 191 195 201 206
259 260 262 268 266 254 262 292 273 268 261 258 261 250 211 151 108 96 127 146 143 143 143 146 152 154 159 158 158 159 158 161 164 166 169 173 177 177 177 181 185 189 191 195
237 245 253 256 254 261 260 268 276 271 265 258 245 194 149 138 124 105 94 107 115 114 114 117 124 129 133 139 144 144 145 146 147 147 151 160 168 164 164 171 171 172 175 187
204 229 247 246 256 257 276 44 330 283 256 215 187 164 164 174 187 131 106 104 102 97 93 95 100 102 107 115 124 125 123 119 118 116 115 116 124 131 136 137 139 143 158 169
214 222 236 248 253 259 10 344 282 249 309 49 148 163 177 187 92 109 112 102 100 97 93 90 88 85 85 95 104 104 101 97 96 99 100 101 104 106 105 105 107 113 117 119
259 254 244 249 249 250 26 323 288 327 350 360 90 121 112 104 107 112 109 106 104 99 95 92 88 83 78 84 94 93 88 89 92 92 89 86 83 86 95 97 95 95 105 120
255 286 292 277 292 352 342 317 310 303 292 312 102 113 119 118 116 113 108 104 101 97 93 92 91 85 77 75 81 85 82 85 88 85 82 80 78 72 72 80 87 93 91 84
234 275 266 270 280 310 328 325 316 300 254 134 122 124 124 121 118 113 108 102 99 95 92 91 89 84 78 74 74 77 81 84 86 84 81 81 78 75 68 57 57 57 52 54
301 286 269 269 286 312 340 351 14 62 90 100 106 115 120 120 117 114 109 103 97 92 89 88 86 84 81 76 72 70 73 79 81 80 78 78 77 74 72 65 47 48 50 35
310 289 281 299 335 331 347 31 69 91 101 109 115 115 116 116 114 111 106 102 99 96 93 90 87 85 82 78 72 67 68 74 78 79 75 74 75 73 75 84 85 63 70 75